Regional Weather Roundup
Issued by NWS

Home | Current Version | Previous Version | Text Only | Print | Product List | Glossary On
Versions: 1 2 3 4 5 6 7 8 9 10 11 12 13 14 15 16 17 18 19 20 21 22 23 24 25 26 27 28 29 30 31 32 33 34 35 36 37 38 39 40 41 42 43 44 45 46 47 48 49 50
000
ASUS44 KOUN 031410
RWROK

WEATHER ROUNDUP FOR OKLAHOMA
NATIONAL WEATHER SERVICE NORMAN OK
900 AM CDT TUE MAY 03 2016

NOTE: "FAIR" INDICATES FEW OR NO CLOUDS BELOW 12,000 FEET WITH NO
      SIGNIFICANT WEATHER AND/OR OBSTRUCTIONS TO VISIBILITY.

OKZ001>007-009>012-014-015-017-031500-
NORTHWEST OKLAHOMA AND THE PANHANDLE

CITY           SKY/WX    TMP DP  RH WIND       PRES   REMARKS
GAGE           CLOUDY    52  44  74 SW13      30.08F
GUYMON         MOSUNNY   56  43  61 W12       30.08R
ENID/WOODRING  MOSUNNY   54  48  82 S5        30.10R
$$

OKZ016-021>023-033>039-044-045-031500-
SOUTHWEST OKLAHOMA

CITY           SKY/WX    TMP DP  RH WIND       PRES   REMARKS
LAWTON/REGL    SUNNY     56  50  80 SW6       30.14R
LAWTON/FT SILL SUNNY     57  48  71 SW7       30.13R
FREDERICK      SUNNY     56  50  80 S8        30.11R
CLINTON        SUNNY     56  45  66 S12       30.13R
HOBART         SUNNY     56  49  77 S8        30.13S
ALTUS AFB      SUNNY     54  47  76 S5        30.13R
$$

OKZ018>020-024>031-031500-
CENTRAL OKLAHOMA

CITY           SKY/WX    TMP DP  RH WIND       PRES   REMARKS
OKLAHOMA CITY  MOSUNNY   55  46  71 SW12      30.12R
OKC/WILEY POST SUNNY     55  46  71 SW8       30.12R
OKC/TINKER AFB SUNNY     56  45  65 W8        30.11R
STILLWATER     MOSUNNY   53  48  83 W3        30.12R
GUTHRIE        SUNNY     52  46  80 SW3       30.12R
$$

OKZ008-013-054>072-031500-
NORTHEAST OKLAHOMA

CITY           SKY/WX    TMP DP  RH WIND       PRES   REMARKS
TULSA          MOSUNNY   55  49  80 N3        30.11R
TULSA/JONES    SUNNY     58  49  72 NE3       30.11S
PONCA CITY     SUNNY     55  46  71 CALM      30.10S
BARTLESVILLE   SUNNY     52  47  83 CALM      30.13R
MUSKOGEE       SUNNY     54  49  83 CALM      30.13R
$$

OKZ032-040>043-046>053-073>077-031500-
SOUTH CENTRAL/SOUTHEAST OKLAHOMA

CITY           SKY/WX    TMP DP  RH WIND       PRES   REMARKS
ARDMORE/DWNTWN SUNNY     55  46  71 CALM      30.13R
MCALESTER      MOSUNNY   55  49  80 CALM      30.13R
$$




USA.gov is the U.S. government's official web portal to all federal, state and local government web resources and services.